Date String (YYYY-MM-DD hh:mm:ss) UTC,Instrument flags,Ambient pressure (hPa),Sample flow (lpm),Bypass flow (lpm),Sample temperature (°C),Ambient temperature (°C),ASC tube jacket temperature (°C),LED temperature (°C),Box temperature (°C),Sample RH (%),Span deviation,Mass concentration (μg/m³),Mass concentration (μg/m³),Mass concentration (μg/m³)
DateTimeUTC,F1_M11,P_M11,Q1_M11,Q2_M11,T1_M11,T2_M11,T3_M11,T4_M11,T5_M11,U1_M11,ZSPAN_M11,X0_M11,X2_M11,X1_M11
2022-12-31 19:00:00,,0812.9,4.98,0.00,24.5,23.3,00.0,33.2,26.3,11.3,0000.0,0014.16,0010.80,0010.45
2022-12-31 19:01:00,,0812.9,5.01,0.00,24.5,23.4,00.0,33.2,26.3,11.2,0000.0,0014.07,0010.73,0010.39
2022-12-31 19:02:00,,0812.9,5.03,0.00,24.5,23.4,00.0,33.2,26.3,11.3,0000.0,0014.01,0010.66,0010.33
2022-12-31 19:03:00,,0812.9,5.00,0.00,24.5,23.4,00.0,33.2,26.4,11.1,0000.0,0014.74,0010.58,0010.25
2022-12-31 19:04:00,,0812.9,4.95,0.00,24.5,23.4,00.0,33.2,26.4,11.2,0000.0,0014.64,0010.52,0010.20
2022-12-31 19:05:00,,0812.9,5.00,0.00,24.6,23.5,00.0,33.3,26.4,11.2,0000.0,0014.47,0010.43,0010.11
2022-12-31 19:06:00,,0812.8,5.04,0.00,24.6,23.5,00.0,33.3,26.4,11.2,0000.0,0014.26,0010.36,0010.05
2022-12-31 19:07:00,,0812.7,5.00,0.00,24.6,23.5,00.0,33.3,26.4,11.1,0000.0,0014.03,0010.29,0009.99
2022-12-31 19:08:00,,0812.7,4.98,0.00,24.6,23.5,00.0,33.3,26.4,11.2,0000.0,0013.72,0010.24,0009.93
2022-12-31 19:09:00,,0812.8,5.01,0.00,24.6,23.5,00.0,33.3,26.4,11.1,0000.0,0013.59,0010.24,0009.95
2022-12-31 19:10:00,,0812.9,5.03,0.00,24.6,23.5,00.0,33.3,26.5,11.1,0000.0,0013.54,0010.23,0009.94
2022-12-31 19:11:00,,0812.9,4.97,0.00,24.7,23.6,00.0,33.3,26.5,11.3,0000.0,0013.49,0010.23,0009.95
2022-12-31 19:12:00,,0812.9,4.98,0.00,24.7,23.6,00.0,33.4,26.5,11.2,0000.0,0013.46,0010.26,0010.00
2022-12-31 19:13:00,,0812.9,4.97,0.00,24.7,23.6,00.0,33.4,26.5,11.1,0000.0,0013.61,0010.35,0010.09
2022-12-31 19:14:00,,0813.0,5.09,0.00,24.7,23.6,00.0,33.4,26.5,11.0,0000.0,0013.32,0010.48,0010.22
2022-12-31 19:15:00,,0813.0,5.02,0.00,24.7,23.6,00.0,33.4,26.6,11.0,0000.0,0013.13,0010.51,0010.26
2022-12-31 19:16:00,,0813.1,4.96,0.00,24.7,23.7,00.0,33.4,26.6,11.2,0000.0,0013.23,0010.61,0010.36
2022-12-31 19:17:00,,0813.0,5.04,0.00,24.8,23.7,00.0,33.4,26.6,11.1,0000.0,0013.30,0010.67,0010.44
2022-12-31 19:18:00,,0813.0,5.01,0.00,24.8,23.7,00.0,33.4,26.6,11.1,0000.0,0013.40,0010.74,0010.50
2022-12-31 19:19:00,,0813.2,4.98,0.00,24.8,23.7,00.0,33.5,26.6,11.2,0000.0,0013.53,0010.83,0010.59
2022-12-31 19:20:00,,0813.1,4.98,0.00,24.8,23.7,00.0,33.5,26.7,11.1,0000.0,0013.51,0010.85,0010.63
2022-12-31 19:21:00,,0813.1,5.01,0.00,24.8,23.8,00.0,33.5,26.7,11.1,0000.0,0013.61,0010.91,0010.67
2022-12-31 19:22:00,,0813.0,5.00,0.00,24.9,23.8,00.0,33.5,26.7,11.2,0000.0,0013.72,0010.95,0010.68
2022-12-31 19:23:00,,0813.1,4.99,0.00,24.9,23.8,00.0,33.5,26.7,11.3,0000.0,0013.81,0010.99,0010.69
2022-12-31 19:24:00,,0813.1,5.00,0.00,24.9,23.8,00.0,33.5,26.7,11.5,0000.0,0013.79,0011.00,0010.69
2022-12-31 19:25:00,,0813.1,5.00,0.00,24.9,23.8,00.0,33.6,26.7,11.1,0000.0,0013.61,0011.01,0010.68
2022-12-31 19:26:00,,0813.0,5.00,0.00,24.9,23.8,00.0,33.6,26.7,11.0,0000.0,0013.58,0011.05,0010.71
2022-12-31 19:27:00,,0813.1,5.00,0.00,24.9,23.8,00.0,33.6,26.7,10.9,0000.0,0013.60,0011.06,0010.71
2022-12-31 19:28:00,,0813.1,5.00,0.00,24.9,23.8,00.0,33.6,26.7,11.0,0000.0,0013.56,0011.05,0010.69
2022-12-31 19:29:00,,0813.0,5.00,0.00,24.9,23.8,00.0,33.6,26.7,10.9,0000.0,0013.49,0011.03,0010.68
2022-12-31 19:30:00,,0812.9,5.00,0.00,25.0,23.8,00.0,33.6,26.7,10.8,0000.0,0013.42,0011.00,0010.65
2022-12-31 19:31:00,,0812.9,5.00,0.00,25.0,23.8,00.0,33.7,26.7,10.9,0000.0,0013.44,0011.00,0010.65
2022-12-31 19:32:00,,0812.9,5.00,0.00,25.0,23.8,00.0,33.7,26.7,10.8,0000.0,0013.38,0010.97,0010.62
2022-12-31 19:33:00,,0813.1,5.00,0.00,25.0,23.8,00.0,33.7,26.7,10.9,0000.0,0013.27,0010.92,0010.60
2022-12-31 19:34:00,,0813.0,5.00,0.00,25.0,23.8,00.0,33.7,26.7,11.0,0000.0,0013.21,0010.90,0010.61
2022-12-31 19:35:00,,0812.9,5.00,0.00,25.0,23.8,00.0,33.7,26.7,11.0,0000.0,0013.19,0010.89,0010.60
2022-12-31 19:36:00,,0813.0,5.00,0.00,25.0,23.8,00.0,33.7,26.8,11.0,0000.0,0013.17,0010.87,0010.61
2022-12-31 19:37:00,,0813.0,5.00,0.00,25.0,23.8,00.0,33.7,26.8,11.0,0000.0,0013.17,0010.88,0010.63
2022-12-31 19:38:00,,0813.2,5.00,0.00,25.0,23.8,00.0,33.7,26.8,11.0,0000.0,0013.20,0010.91,0010.66
2022-12-31 19:39:00,,0813.0,5.00,0.00,25.0,23.9,00.0,33.8,26.8,11.2,0000.0,0013.55,0010.99,0010.72
2022-12-31 19:40:00,,0813.1,5.00,0.00,25.1,23.9,00.0,33.8,26.8,11.0,0000.0,0013.77,0011.04,0010.77
2022-12-31 19:41:00,,0813.1,4.99,0.00,25.1,23.9,00.0,33.8,26.8,11.0,0000.0,0013.76,0011.08,0010.83
2022-12-31 19:42:00,,0813.1,4.99,0.00,25.1,23.9,00.0,33.8,26.9,11.2,0000.0,0013.81,0011.13,0010.89
2022-12-31 19:43:00,,0813.2,5.00,0.00,25.1,23.9,00.0,33.8,26.9,10.9,0000.0,0013.80,0011.17,0010.95
2022-12-31 19:44:00,,0813.0,5.00,0.00,25.1,23.9,00.0,33.8,26.9,10.8,0000.0,0013.82,0011.21,0010.99
2022-12-31 19:45:00,,0812.9,5.00,0.00,25.1,23.9,00.0,33.8,26.8,10.8,0000.0,0013.88,0011.24,0011.01
2022-12-31 19:46:00,,0813.0,5.00,0.00,25.1,23.9,00.0,33.8,26.9,10.9,0000.0,0013.91,0011.28,0011.05
2022-12-31 19:47:00,,0813.1,4.99,0.00,25.1,23.9,00.0,33.8,26.9,10.9,0000.0,0013.95,0011.33,0011.09
2022-12-31 19:48:00,,0812.9,5.01,0.00,25.1,24.0,00.0,33.9,26.9,11.1,0000.0,0013.99,0011.38,0011.14
2022-12-31 19:49:00,,0813.0,5.00,0.00,25.1,24.0,00.0,33.9,26.9,11.0,0000.0,0014.05,0011.44,0011.18
2022-12-31 19:50:00,,0813.0,5.02,0.00,25.2,24.0,00.0,33.9,26.9,11.0,0000.0,0013.82,0011.43,0011.20
2022-12-31 19:51:00,,0813.2,5.03,0.00,25.2,24.0,00.0,33.9,26.9,11.5,0000.0,0013.66,0011.49,0011.26
2022-12-31 19:52:00,,0813.1,5.01,0.00,25.2,24.0,00.0,33.9,27.0,11.2,0000.0,0014.08,0011.55,0011.30
2022-12-31 19:53:00,,0813.1,4.99,0.00,25.2,24.0,00.0,33.9,27.0,10.8,0000.0,0014.18,0011.61,0011.35
2022-12-31 19:54:00,,0813.0,5.00,0.00,25.2,24.0,00.0,33.9,27.0,10.8,0000.0,0014.33,0011.70,0011.43
2022-12-31 19:55:00,,0813.1,4.99,0.00,25.2,24.0,00.0,33.9,27.0,10.8,0000.0,0014.53,0011.82,0011.52
2022-12-31 19:56:00,,0813.2,4.99,0.00,25.2,24.0,00.0,33.9,27.0,11.1,0000.0,0014.63,0011.91,0011.61
2022-12-31 19:57:00,,0813.1,5.00,0.00,25.2,24.0,00.0,33.9,27.1,11.6,0000.0,0014.72,0011.98,0011.68
2022-12-31 19:58:00,,0813.1,5.00,0.00,25.3,24.0,00.0,34.0,27.0,11.4,0000.0,0014.79,0012.05,0011.75
2022-12-31 19:59:00,,0813.1,5.00,0.00,25.3,24.1,00.0,34.0,27.0,11.2,0000.0,0014.90,0012.15,0011.85
